SCP
0 0 0 0 0 0 0 0 0 0 0 0 0 0 0 0 0 0 0 0 0 0 0 0 0 0 0 0 0 0 0 0 0 0 0 0 0 0 0 0 0 0 0
0 0 0 0 0 0 0 0 0 0 0 0 0 0 0 0 0 0 0 0 0 0 0 0 0 0 0 0 0 0 0 0 0 0 0 0 0 0 0 0 0 0 0
0 0 0 0 0 0 0 0 0 0 0 0 0 0 0 0 0 0 0 0 0 0 0 0 0 0 0 0 0 0 0 0 0 0 0 0 0 0 0 0 0 0 0
0 0 0 0 0 0 0 0 0 0 0 0 0 0 0 0 0 0 0 0 0 0 0 0 0 0 0 0 0 0 0 0 0 0 0 0 0 0 0 0 0 0 0
0 0 0 0 0 0 0 0 0 0 0 0 0 0 0 0 0 0 0 0 0 0 0 0 0 0 0 0 0 0 0 0 0 0 0 0 0 0 0 0 0 0 0
0 0 0 0 0 0 0 0 0 0 0 0 0 0 0 0 0 0 0 0 0 0 0 0 0 0 0 0 0 0 0 0 0 0 0 0 0 0 0 0 0 0 0
0 0 0 0 0 0 0 0 0 0 0 0 0 0 0 0 0 0 0 0 0 0 0 0 0 0 0 0 0 0 0 0 0 0 0 0 0 0 0 0 0 0 0
0 0 0 0 0 0 0 0 0 0 0 0 0 0 0 0 0 0 0 0 0 0 0 0 0 0 0 0 0 0 0 0 0 0 0 0 0 0 0 0 0 0 0
0 0 0 0 0 0 0 0 0 0 0 0 0 0 0 0 0 0 0 0 0 0 0 0 0 0 0 0 0 0 0 0 0 0 0 0 0 0 0 0 0 0 0
0 0 0 0 0 0 0 0 0 0 0 0 0 0 0 0 0 0 0 0 0 0 0 0 0 0 0 0 0 0 0 0 0 0 0 0 0 0 0 0 0 0 0
0 0 0 0 0 0 0 0 0 0 0 0 0 0 0 0 0 0 0 0 0 0 0 0 0 0 0 0 0 0 0 0 0 0 0 0 0 0 0 0 0 0 0
0 0 0 0 0 0 0 0 0 0 0 0 0 0 0 0 0 0 0 0 0 0 0 0 0 0 0 0 0 0 0 0 0 0 0 0 0 0 0 0 0 0 0
0 0 0 0 0 0 0 0 0 0 0 0 0 0 0 0 0 0 0 0 0 0 0 0 0 0 0 0 0 0 0 0 0 0 0 0 0 0 0 0 0 0 0
0 0 0 0 0 0 0 0 0 0 0 0 0 0 0 0 0 0 0 0 0 0 0 0 0 0 0 0 0 0 0 0 0 0 0 0 0 0 0 0 0 0 0
0 0 0 0 0 0 0 0 0 0 0 0 0 0 0 0 0 0 0 0 0 0 0 0 0 0 0 0 0 0 0 0 0 0 0 0 0 0 0 0 0 0 0
0 0 0 0 0 0 0 0 0 0 0 0 0 0 0 0 0 0 0 0 0 0 0 0 0 0 0 0 0 0 0 0 0 0 0 0 0 0 0 0 0 0 0
0 0 0 0 0 0 0 0 0 0 0 0 0 0 0 0 0 0 0 0 0 0 0 0 0 0 0 0 0 0 0 0 0 0 0 0 0 0 0 0 0 0 0
0 0 0 0 0 0 0 0 0 0 0 0 0 0 0 0 0 0 0 0 0 0 0 0 0 0 0 0 0 0 0 0 0 0 0 0 0 0 0 0 0 0 0
0 0 0 0 0 0 0 0 0 0 0 0 0 0 0 0 0 0 0 0 0 0 0 0 0 0 0 0 0 0 0 0 0 0 0 0 0 0 0 0 0 0 0
0 0 0 0 0 0 0 0 0 0 0 0 0 0 0 0 0 0 0 0 0 0 0 0 0 0 0 0 0 0 0 0 0 0 0 0 0 0 0 0 0 0 0
0 0 0 0 0 0 0 0 0 0 0 0 0 0 0 0 0 0 0 0 0 0 0 0 0 0 0 0 0 0 0 0 0 0 0 0 0 0 0 0 0 0 0
0 0 0 0 0 0 0 0 0 0 0 0 0 0 0 0 0 0 0 0 0 0 0 0 0 0 0 0 0 0 0 0 0 0 0 0 0 0 0 0 0 0 0
0 0 0 0 0 0 0 0 0 0 0 0 0 0 0 0 0 0 0 0 0 0 0 0 0 0 0 0 0 0 0 0 0 0 0 0 0 0 0 0 0 0 0
0 0 0 0 0 0 0 0 0 0 0 0 0 0 0 0 0 0 0 0 0 0 0 0 0 0 0 0 0 0 0 0 0 0 0 0 0 0 0 0 0 0 0
0 0 0 0 0 0 0 0 0 0 0 0 0 0 0 0 0 0 0 0 0 0 0 0 0 0 0 0 0 0 0 0 0 0 0 0 0 0 0 0 0 0 0
0 0 0 0 0 0 0 0 0 0 0 0 0 0 0 0 0 0 0 0 0 0 0 0 0 0 0 0 0 0 0 0 0 0 0 0 0 0 0 0 0 0 0
Wind_Speed_500mb
16 9 8 10 11 11 9 6 4 3 2 3 4 7 7 4 12 10 6 8 6 7 14 13 18 20 22 24 25 28 31 36 34 37 36 34 37 36 36 36 37 38 38
26 14 15 15 18 18 18 15 11 9 9 9 10 11 11 9 7 10 12 9 8 12 12 11 12 19 19 21 24 25 27 28 30 30 32 30 31 32 32 32 33 34 35
37 27 24 26 20 24 24 22 20 19 16 18 18 18 19 17 13 13 17 16 13 10 15 14 15 17 16 17 19 23 25 24 26 29 31 28 28 27 29 28 29 30 31
43 38 39 34 37 35 31 30 28 27 28 27 27 26 26 25 21 18 20 22 21 19 19 14 15 16 18 17 19 18 22 23 23 25 27 25 23 24 25 24 25 26 27
51 50 45 45 42 41 41 36 36 33 33 33 32 33 33 34 32 29 27 28 31 25 27 25 22 20 19 20 21 20 20 21 23 22 21 22 19 19 19 20 20 21 22
58 59 55 51 50 49 47 43 41 41 39 38 40 41 40 40 41 39 34 36 36 35 36 34 29 28 29 24 21 20 21 22 22 18 19 17 16 15 15 15 17 18 20
63 64 63 59 59 58 52 50 50 50 50 48 44 44 46 47 50 50 44 44 45 47 45 41 37 35 35 31 28 25 23 23 21 18 16 15 14 12 11 11 13 14 17
63 66 67 67 64 60 61 62 62 62 58 56 54 50 39 50 58 60 58 53 53 54 51 49 44 42 42 41 39 34 28 23 20 17 19 19 15 12 8 4 7 11 15
65 62 66 72 73 71 71 70 70 64 71 63 61 53 26 36 39 53 65 62 61 61 58 56 52 52 53 51 52 47 43 37 28 21 21 20 18 12 5 0 5 8 12
67 64 69 68 77 81 81 77 68 76 73 74 67 69 74 64 39 32 44 57 63 64 66 65 63 62 61 60 60 59 53 48 39 31 31 27 22 16 11 6 7 11 12
72 71 68 67 78 92 89 85 89 73 85 81 81 77 73 82 75 73 50 54 57 63 68 70 70 67 69 68 67 65 59 54 46 40 33 27 23 20 16 14 14 18 20
71 67 69 72 77 82 96 106 97 83 97 85 85 89 77 77 85 81 80 75 69 63 63 73 78 75 78 75 72 72 68 62 55 47 39 32 28 24 20 19 20 23 25
57 59 66 71 63 82 72 91 96 93 99 87 96 90 98 76 95 89 83 79 74 72 63 64 76 77 80 80 77 77 72 64 58 52 44 37 32 28 23 22 25 25 28
49 54 60 67 67 69 77 80 79 91 90 95 99 93 102 91 94 98 94 84 76 69 70 69 67 71 80 79 75 75 74 67 62 56 48 41 35 30 26 28 27 29 31
57 59 62 63 66 63 68 66 79 78 76 79 78 78 88 90 92 84 89 91 87 58 69 78 74 71 71 76 76 79 74 73 65 59 51 44 38 32 30 31 29 36 39
47 49 52 53 56 62 67 66 63 61 66 67 67 68 71 73 77 83 84 87 84 87 80 73 70 66 66 68 77 79 78 72 67 60 56 47 41 30 35 38 36 41 41
30 34 40 43 46 49 53 60 69 72 73 72 72 73 78 78 81 81 83 85 82 79 90 85 83 72 65 68 71 75 77 74 66 67 60 51 41 37 40 38 42 43 41
31 33 34 37 41 46 50 55 59 59 59 62 66 68 69 73 78 79 77 77 75 76 80 90 84 76 72 63 61 69 74 76 75 65 62 53 49 37 47 41 46 47 40
37 38 38 38 40 43 47 50 53 54 57 57 61 66 65 66 68 71 71 73 74 72 73 83 83 77 69 63 68 74 71 72 69 68 62 54 48 45 50 44 50 44 41
41 41 41 42 42 44 48 49 53 54 55 57 59 61 61 63 62 65 67 69 69 71 73 78 83 80 75 72 71 69 71 71 68 71 67 57 55 56 44 48 53 44 41
45 45 45 44 43 44 44 46 47 49 55 57 59 60 61 62 61 65 66 69 69 71 74 73 83 80 75 68 68 65 61 57 72 67 68 69 63 44 53 55 53 45 42
46 47 46 46 48 46 43 46 48 52 57 60 62 62 63 64 66 67 62 60 60 60 65 67 73 77 75 66 53 50 54 68 76 75 71 68 59 53 56 45 51 47 45
40 43 45 47 46 46 45 47 49 54 56 59 60 61 64 65 66 62 59 58 56 53 56 58 65 71 69 60 45 48 59 69 77 72 67 54 47 52 42 44 46 48 46
40 41 42 46 49 46 48 47 48 54 58 59 60 64 65 65 62 58 53 48 52 50 51 50 47 43 38 37 38 45 49 60 68 59 46 48 51 47 44 45 46 48 49
45 47 47 48 50 48 53 53 51 55 59 61 60 63 65 66 62 59 51 45 46 44 40 40 37 41 41 40 47 53 50 55 54 47 44 50 47 48 48 48 47 47 47
49 52 54 53 53 49 47 48 50 58 63 60 58 59 60 58 52 49 49 48 51 52 50 48 43 41 36 38 39 40 49 53 48 44 47 48 43 40 47 51 50 35 42
Wind_Direction_500mb
187 194 200 201 200 201 201 220 222 235 233 229 216 204 211 204 170 190 231 130 104 92 119 115 118 123 120 119 119 112 110 108 105 97 93 91 88 86 82 79 75 71 67
216 207 238 231 225 225 225 226 235 234 240 237 231 229 239 251 245 214 200 263 159 142 145 136 138 130 126 127 119 121 116 110 107 102 97 94 91 88 84 80 77 73 67
225 230 238 242 241 248 245 244 242 241 235 239 230 231 235 240 251 241 215 223 241 267 176 171 158 147 144 135 138 135 125 120 113 112 108 100 94 90 87 83 78 71 65
231 232 233 239 240 234 242 246 246 246 237 229 227 231 232 237 237 233 226 218 231 264 251 233 193 181 160 156 151 151 134 137 132 126 109 106 102 97 90 83 75 67 61
235 237 241 242 242 243 245 247 250 248 243 240 236 231 235 228 234 237 233 231 235 241 246 249 248 195 183 181 176 167 159 149 136 125 123 115 114 103 95 86 76 67 59
240 240 242 244 245 245 246 253 250 248 247 242 243 236 234 237 241 235 241 237 238 241 248 241 240 217 193 197 198 188 178 165 147 139 133 129 119 106 99 85 71 60 50
242 243 244 246 247 247 249 250 250 252 249 251 239 242 241 239 242 242 247 248 241 245 247 242 241 233 217 196 199 200 205 178 159 152 144 132 124 110 89 76 64 48 36
250 249 241 246 249 252 249 249 250 248 246 241 239 243 240 249 249 248 249 247 245 243 240 240 241 236 232 220 209 204 205 195 175 169 181 174 167 164 153 110 55 39 29
246 257 255 248 246 245 247 249 250 257 250 248 244 238 226 235 250 248 249 250 243 243 241 236 238 238 229 227 228 214 203 201 190 191 195 191 189 183 178 132 18 13 12
256 254 256 256 257 246 248 247 251 253 252 250 245 242 244 249 250 257 261 258 251 248 240 238 234 234 231 231 230 237 241 235 221 203 209 206 213 219 237 268 309 325 344
252 253 253 260 261 252 254 248 248 249 248 251 250 254 246 247 250 253 259 259 251 252 246 240 238 235 232 232 233 235 237 239 244 235 232 230 232 241 254 275 292 302 315
257 260 259 260 264 260 252 254 267 257 250 251 250 253 251 257 254 252 254 256 262 262 255 244 240 237 236 235 235 237 237 239 238 235 234 232 237 244 253 271 288 300 310
263 267 265 259 262 262 265 266 253 255 263 247 257 266 250 264 256 258 256 262 262 260 255 252 247 245 240 238 237 238 236 235 234 234 233 234 239 248 259 270 281 295 303
261 267 269 268 267 269 273 261 272 264 260 250 258 256 251 255 263 262 260 264 260 261 262 256 263 252 244 240 235 236 235 234 232 234 232 236 242 250 264 273 280 298 301
266 266 264 260 258 262 264 272 266 266 271 268 268 267 263 266 266 267 264 266 264 256 261 263 263 263 253 243 234 235 236 232 230 232 233 236 242 247 268 268 285 298 302
264 264 265 262 260 257 260 263 269 270 270 272 272 272 272 273 275 273 272 272 268 259 256 265 267 264 257 244 234 232 237 231 231 232 235 238 242 246 259 266 282 285 286
275 276 273 270 265 262 261 261 261 264 267 269 270 273 274 274 273 272 272 272 269 260 256 261 267 263 250 249 235 231 231 233 233 233 235 238 239 247 256 263 274 286 281
295 293 290 286 281 276 271 267 267 268 269 268 269 272 274 273 272 273 273 272 270 266 261 261 262 258 257 254 236 231 231 233 233 233 234 234 239 246 252 262 275 272 278
290 288 288 286 282 279 276 273 271 266 266 265 270 271 275 274 275 275 276 274 272 268 260 254 255 258 257 244 243 230 225 230 231 232 231 231 245 243 252 262 271 269 277
292 292 289 286 286 283 279 275 271 269 268 269 271 273 274 276 278 279 278 276 273 267 260 251 253 253 252 251 237 231 225 223 227 227 230 238 244 244 252 265 270 268 275
289 291 290 291 290 288 285 282 275 270 269 271 273 273 274 275 275 277 276 274 271 267 261 255 250 249 248 235 233 230 227 229 228 226 235 238 242 251 251 266 265 263 270
296 294 294 293 292 293 289 281 276 271 272 272 273 272 274 277 277 277 276 271 271 267 261 253 249 244 241 241 227 228 225 220 225 228 231 247 250 246 261 256 262 262 269
298 297 295 294 292 290 287 282 278 276 273 274 276 277 278 279 281 280 277 274 268 262 258 256 255 252 242 232 232 224 232 231 229 227 242 244 245 260 256 260 258 267 270
306 298 292 288 287 286 283 281 279 277 277 277 277 275 275 276 277 274 271 269 266 258 252 251 246 241 231 221 223 232 234 226 237 240 237 243 262 262 265 268 268 268 276
320 315 311 304 299 293 284 281 277 275 276 279 279 280 280 280 280 275 268 261 257 247 238 236 226 221 223 227 227 226 229 229 230 234 237 253 267 269 269 272 273 274 278
304 306 307 307 306 303 295 288 285 285 287 290 291 289 288 289 289 281 264 258 244 239 243 234 222 211 212 228 228 246 250 233 233 236 241 253 273 279 281 274 278 274 284
Wind_Speed_850mb
16 9 8 10 11 11 9 6 4 3 2 3 4 7 7 4 12 10 6 8 6 7 14 13 18 20 22 24 25 28 31 36 34 37 36 34 37 36 36 36 37 38 38
26 14 15 15 18 18 18 15 11 9 9 9 10 11 11 9 7 10 12 9 8 12 12 11 12 19 19 21 24 25 27 28 30 30 32 30 31 32 32 32 33 34 35
37 27 24 26 20 24 24 22 20 19 16 18 18 18 19 17 13 13 17 16 13 10 15 14 15 17 16 17 19 23 25 24 26 29 31 28 28 27 29 28 29 30 31
43 38 39 34 37 35 31 30 28 27 28 27 27 26 26 25 21 18 20 22 21 19 19 14 15 16 18 17 19 18 22 23 23 25 27 25 23 24 25 24 25 26 27
51 50 45 45 42 41 41 36 36 33 33 33 32 33 33 34 32 29 27 28 31 25 27 25 22 20 19 20 21 20 20 21 23 22 21 22 19 19 19 20 20 21 22
58 59 55 51 50 49 47 43 41 41 39 38 40 41 40 40 41 39 34 36 36 35 36 34 29 28 29 24 21 20 21 22 22 18 19 17 16 15 15 15 17 18 20
63 64 63 59 59 58 52 50 50 50 50 48 44 44 46 47 50 50 44 44 45 47 45 41 37 35 35 31 28 25 23 23 21 18 16 15 14 12 11 11 13 14 17
63 66 67 67 64 60 61 62 62 62 58 56 54 50 39 50 58 60 58 53 53 54 51 49 44 42 42 41 39 34 28 23 20 17 19 19 15 12 8 4 7 11 15
65 62 66 72 73 71 71 70 70 64 71 63 61 53 26 36 39 53 65 62 61 61 58 56 52 52 53 51 52 47 43 37 28 21 21 20 18 12 5 0 5 8 12
67 64 69 68 77 81 81 77 68 76 73 74 67 69 74 64 39 32 44 57 63 64 66 65 63 62 61 60 60 59 53 48 39 31 31 27 22 16 11 6 7 11 12
72 71 68 67 78 92 89 85 89 73 85 81 81 77 73 82 75 73 50 54 57 63 68 70 70 67 69 68 67 65 59 54 46 40 33 27 23 20 16 14 14 18 20
71 67 69 72 77 82 96 106 97 83 97 85 85 89 77 77 85 81 80 75 69 63 63 73 78 75 78 75 72 72 68 62 55 47 39 32 28 24 20 19 20 23 25
57 59 66 71 63 82 72 91 96 93 99 87 96 90 98 76 95 89 83 79 74 72 63 64 76 77 80 80 77 77 72 64 58 52 44 37 32 28 23 22 25 25 28
49 54 60 67 67 69 77 80 79 91 90 95 99 93 102 91 94 98 94 84 76 69 70 69 67 71 80 79 75 75 74 67 62 56 48 41 35 30 26 28 27 29 31
57 59 62 63 66 63 68 66 79 78 76 79 78 78 88 90 92 84 89 91 87 58 69 78 74 71 71 76 76 79 74 73 65 59 51 44 38 32 30 31 29 36 39
47 49 52 53 56 62 67 66 63 61 66 67 67 68 71 73 77 83 84 87 84 87 80 73 70 66 66 68 77 79 78 72 67 60 56 47 41 30 35 38 36 41 41
30 34 40 43 46 49 53 60 69 72 73 72 72 73 78 78 81 81 83 85 82 79 90 85 83 72 65 68 71 75 77 74 66 67 60 51 41 37 40 38 42 43 41
31 33 34 37 41 46 50 55 59 59 59 62 66 68 69 73 78 79 77 77 75 76 80 90 84 76 72 63 61 69 74 76 75 65 62 53 49 37 47 41 46 47 40
37 38 38 38 40 43 47 50 53 54 57 57 61 66 65 66 68 71 71 73 74 72 73 83 83 77 69 63 68 74 71 72 69 68 62 54 48 45 50 44 50 44 41
41 41 41 42 42 44 48 49 53 54 55 57 59 61 61 63 62 65 67 69 69 71 73 78 83 80 75 72 71 69 71 71 68 71 67 57 55 56 44 48 53 44 41
45 45 45 44 43 44 44 46 47 49 55 57 59 60 61 62 61 65 66 69 69 71 74 73 83 80 75 68 68 65 61 57 72 67 68 69 63 44 53 55 53 45 42
46 47 46 46 48 46 43 46 48 52 57 60 62 62 63 64 66 67 62 60 60 60 65 67 73 77 75 66 53 50 54 68 76 75 71 68 59 53 56 45 51 47 45
40 43 45 47 46 46 45 47 49 54 56 59 60 61 64 65 66 62 59 58 56 53 56 58 65 71 69 60 45 48 59 69 77 72 67 54 47 52 42 44 46 48 46
40 41 42 46 49 46 48 47 48 54 58 59 60 64 65 65 62 58 53 48 52 50 51 50 47 43 38 37 38 45 49 60 68 59 46 48 51 47 44 45 46 48 49
45 47 47 48 50 48 53 53 51 55 59 61 60 63 65 66 62 59 51 45 46 44 40 40 37 41 41 40 47 53 50 55 54 47 44 50 47 48 48 48 47 47 47
49 52 54 53 53 49 47 48 50 58 63 60 58 59 60 58 52 49 49 48 51 52 50 48 43 41 36 38 39 40 49 53 48 44 47 48 43 40 47 51 50 35 42
Wind_Direction_850mb
187 194 200 201 200 201 201 220 222 235 233 229 216 204 211 204 170 190 231 130 104 92 119 115 118 123 120 119 119 112 110 108 105 97 93 91 88 86 82 79 75 71 67
216 207 238 231 225 225 225 226 235 234 240 237 231 229 239 251 245 214 200 263 159 142 145 136 138 130 126 127 119 121 116 110 107 102 97 94 91 88 84 80 77 73 67
225 230 238 242 241 248 245 244 242 241 235 239 230 231 235 240 251 241 215 223 241 267 176 171 158 147 144 135 138 135 125 120 113 112 108 100 94 90 87 83 78 71 65
231 232 233 239 240 234 242 246 246 246 237 229 227 231 232 237 237 233 226 218 231 264 251 233 193 181 160 156 151 151 134 137 132 126 109 106 102 97 90 83 75 67 61
235 237 241 242 242 243 245 247 250 248 243 240 236 231 235 228 234 237 233 231 235 241 246 249 248 195 183 181 176 167 159 149 136 125 123 115 114 103 95 86 76 67 59
240 240 242 244 245 245 246 253 250 248 247 242 243 236 234 237 241 235 241 237 238 241 248 241 240 217 193 197 198 188 178 165 147 139 133 129 119 106 99 85 71 60 50
242 243 244 246 247 247 249 250 250 252 249 251 239 242 241 239 242 242 247 248 241 245 247 242 241 233 217 196 199 200 205 178 159 152 144 132 124 110 89 76 64 48 36
250 249 241 246 249 252 249 249 250 248 246 241 239 243 240 249 249 248 249 247 245 243 240 240 241 236 232 220 209 204 205 195 175 169 181 174 167 164 153 110 55 39 29
246 257 255 248 246 245 247 249 250 257 250 248 244 238 226 235 250 248 249 250 243 243 241 236 238 238 229 227 228 214 203 201 190 191 195 191 189 183 178 132 18 13 12
256 254 256 256 257 246 248 247 251 253 252 250 245 242 244 249 250 257 261 258 251 248 240 238 234 234 231 231 230 237 241 235 221 203 209 206 213 219 237 268 309 325 344
252 253 253 260 261 252 254 248 248 249 248 251 250 254 246 247 250 253 259 259 251 252 246 240 238 235 232 232 233 235 237 239 244 235 232 230 232 241 254 275 292 302 315
257 260 259 260 264 260 252 254 267 257 250 251 250 253 251 257 254 252 254 256 262 262 255 244 240 237 236 235 235 237 237 239 238 235 234 232 237 244 253 271 288 300 310
263 267 265 259 262 262 265 266 253 255 263 247 257 266 250 264 256 258 256 262 262 260 255 252 247 245 240 238 237 238 236 235 234 234 233 234 239 248 259 270 281 295 303
261 267 269 268 267 269 273 261 272 264 260 250 258 256 251 255 263 262 260 264 260 261 262 256 263 252 244 240 235 236 235 234 232 234 232 236 242 250 264 273 280 298 301
266 266 264 260 258 262 264 272 266 266 271 268 268 267 263 266 266 267 264 266 264 256 261 263 263 263 253 243 234 235 236 232 230 232 233 236 242 247 268 268 285 298 302
264 264 265 262 260 257 260 263 269 270 270 272 272 272 272 273 275 273 272 272 268 259 256 265 267 264 257 244 234 232 237 231 231 232 235 238 242 246 259 266 282 285 286
275 276 273 270 265 262 261 261 261 264 267 269 270 273 274 274 273 272 272 272 269 260 256 261 267 263 250 249 235 231 231 233 233 233 235 238 239 247 256 263 274 286 281
295 293 290 286 281 276 271 267 267 268 269 268 269 272 274 273 272 273 273 272 270 266 261 261 262 258 257 254 236 231 231 233 233 233 234 234 239 246 252 262 275 272 278
290 288 288 286 282 279 276 273 271 266 266 265 270 271 275 274 275 275 276 274 272 268 260 254 255 258 257 244 243 230 225 230 231 232 231 231 245 243 252 262 271 269 277
292 292 289 286 286 283 279 275 271 269 268 269 271 273 274 276 278 279 278 276 273 267 260 251 253 253 252 251 237 231 225 223 227 227 230 238 244 244 252 265 270 268 275
289 291 290 291 290 288 285 282 275 270 269 271 273 273 274 275 275 277 276 274 271 267 261 255 250 249 248 235 233 230 227 229 228 226 235 238 242 251 251 266 265 263 270
296 294 294 293 292 293 289 281 276 271 272 272 273 272 274 277 277 277 276 271 271 267 261 253 249 244 241 241 227 228 225 220 225 228 231 247 250 246 261 256 262 262 269
298 297 295 294 292 290 287 282 278 276 273 274 276 277 278 279 281 280 277 274 268 262 258 256 255 252 242 232 232 224 232 231 229 227 242 244 245 260 256 260 258 267 270
306 298 292 288 287 286 283 281 279 277 277 277 277 275 275 276 277 274 271 269 266 258 252 251 246 241 231 221 223 232 234 226 237 240 237 243 262 262 265 268 268 268 276
320 315 311 304 299 293 284 281 277 275 276 279 279 280 280 280 280 275 268 261 257 247 238 236 226 221 223 227 227 226 229 229 230 234 237 253 267 269 269 272 273 274 278
304 306 307 307 306 303 295 288 285 285 287 290 291 289 288 289 289 281 264 258 244 239 243 234 222 211 212 228 228 246 250 233 233 236 241 253 273 279 281 274 278 274 284